{"data":{"norad_id":36582,"epoch":"2026-05-25T03:48:24.399072Z","epoch_age_seconds":54651,"freshness":"FRESH","line1":"1 36582U 10021B   26145.15861573  .00000086  00000+0  00000+0 0  9994","line2":"2 36582   0.0286 110.5083 0002826 325.4355 237.0513  1.00271913 58722","mean_motion":1.00271913,"eccentricity":0.0002826,"inclination_deg":0.0286,"raan_deg":110.5083,"arg_perigee_deg":325.4355,"mean_anomaly_deg":237.0513,"bstar":0,"rev_number":5872,"period_min":1436.0950708101,"perigee_km":35774.643335071,"apogee_km":35798.474821294,"semimajor_km":42164.696078182,"source":"CELESTRAK","updated_at":"2026-05-25T13:38:13.892027Z"}}